TimeCDT,TemperatureF,Dew PointF,Humidity,Sea Level PressureIn,VisibilityMPH,Wind Direction,Wind SpeedMPH,Gust SpeedMPH,PrecipitationIn,Events,Conditions,WindDirDegrees,DateUTC
12:52 AM,32.0,27.0,82,30.12,10.0,WNW,8.1,-,N/A,,Overcast,300,2013-03-26 05:52:00
1:52 AM,32.0,27.0,82,30.12,10.0,NW,9.2,-,N/A,,Overcast,310,2013-03-26 06:52:00
2:52 AM,32.0,27.0,82,30.12,10.0,WNW,9.2,-,N/A,,Overcast,300,2013-03-26 07:52:00
3:52 AM,32.0,27.0,82,30.13,10.0,NW,8.1,-,N/A,,Overcast,310,2013-03-26 08:52:00
4:52 AM,32.0,28.0,85,30.13,10.0,NW,6.9,-,N/A,,Overcast,320,2013-03-26 09:52:00
5:52 AM,30.9,28.0,89,30.15,10.0,NW,5.8,-,N/A,,Overcast,320,2013-03-26 10:52:00
6:52 AM,32.0,27.0,82,30.17,10.0,NW,6.9,-,N/A,,Overcast,320,2013-03-26 11:52:00
7:52 AM,32.0,28.0,85,30.19,10.0,NW,6.9,-,N/A,,Overcast,310,2013-03-26 12:52:00
8:52 AM,33.1,27.0,78,30.21,10.0,NW,9.2,-,N/A,,Overcast,320,2013-03-26 13:52:00
9:52 AM,35.1,26.1,70,30.22,10.0,NNW,13.8,-,N/A,,Overcast,340,2013-03-26 14:52:00
11:52 AM,39.0,25.0,57,30.22,10.0,WNW,12.7,-,N/A,,Overcast,290,2013-03-26 16:52:00
12:52 PM,39.0,23.0,53,30.22,10.0,WNW,11.5,-,N/A,,Overcast,300,2013-03-26 17:52:00
1:52 PM,42.1,24.1,49,30.21,10.0,West,13.8,17.3,N/A,,Overcast,280,2013-03-26 18:52:00
2:52 PM,39.9,24.1,53,30.21,10.0,WNW,15.0,21.9,N/A,,Overcast,290,2013-03-26 19:52:00
3:52 PM,37.9,25.0,60,30.21,10.0,WNW,12.7,-,N/A,,Overcast,290,2013-03-26 20:52:00
4:52 PM,37.9,25.0,60,30.22,10.0,West,11.5,-,N/A,,Overcast,280,2013-03-26 21:52:00
5:52 PM,37.0,27.0,67,30.23,10.0,WNW,8.1,-,N/A,,Overcast,290,2013-03-26 22:52:00
6:52 PM,35.1,28.0,76,30.24,10.0,West,9.2,-,N/A,,Overcast,270,2013-03-26 23:52:00
7:52 PM,32.0,27.0,82,30.26,10.0,West,5.8,-,N/A,,Mostly Cloudy,270,2013-03-27 00:52:00
8:52 PM,33.1,28.0,82,30.27,10.0,West,5.8,-,N/A,,Mostly Cloudy,270,2013-03-27 01:52:00
9:52 PM,30.0,27.0,88,30.27,10.0,WNW,4.6,-,N/A,,Mostly Cloudy,290,2013-03-27 02:52:00
10:52 PM,30.9,28.0,89,30.27,10.0,West,4.6,-,N/A,,Overcast,270,2013-03-27 03:52:00
11:52 PM,30.0,27.0,88,30.28,10.0,West,5.8,-,N/A,,Clear,280,2013-03-27 04:52:00